Time,TemperatureF,DewpointF,PressureIn,WindDirection,WindDirectionDegrees,WindSpeedMPH,WindSpeedGustMPH,Humidity,HourlyPrecipIn,Conditions,Clouds,dailyrainin,SoftwareType,DateUTC
2013-01-15 00:00:00,44.3,43.0,30.08,ESE,107,0.0,0.0,95,0.00,,,0.00,VWS V12.07,2013-01-15 05:00:00,
2013-01-15 00:10:00,44.5,43.2,30.08,ESE,107,1.0,1.0,95,0.00,,,0.00,VWS V12.07,2013-01-15 05:10:00,
2013-01-15 00:20:00,44.5,43.2,30.08,ESE,107,0.0,2.0,95,0.00,,,0.00,VWS V12.07,2013-01-15 05:20:00,
2013-01-15 00:30:00,44.6,43.3,30.07,ESE,107,0.0,0.0,95,0.00,,,0.00,VWS V12.07,2013-01-15 05:30:00,
2013-01-15 00:40:00,44.6,43.5,30.07,ESE,107,0.0,1.0,96,0.00,,,0.00,VWS V12.07,2013-01-15 05:40:00,
2013-01-15 00:50:00,44.8,43.7,30.07,ESE,107,0.0,1.0,96,0.00,,,0.00,VWS V12.07,2013-01-15 05:50:00,
2013-01-15 01:00:00,45.1,44.3,30.08,ESE,107,0.0,1.0,97,0.00,,,0.00,VWS V12.07,2013-01-15 06:00:00,
2013-01-15 01:10:00,45.2,44.4,30.08,ESE,107,0.0,0.0,97,0.00,,,0.00,VWS V12.07,2013-01-15 06:10:00,
2013-01-15 01:20:00,45.2,44.4,30.07,ESE,107,0.0,0.0,97,0.00,,,0.00,VWS V12.07,2013-01-15 06:20:00,
2013-01-15 01:30:00,45.5,44.7,30.06,ESE,107,0.0,0.0,97,0.01,,,0.01,VWS V12.07,2013-01-15 06:30:00,
2013-01-15 01:40:00,45.5,44.7,30.06,ESE,107,0.0,1.0,97,0.01,,,0.01,VWS V12.07,2013-01-15 06:40:00,
2013-01-15 01:50:00,45.8,45.0,30.06,ESE,107,0.0,1.0,97,0.02,,,0.02,VWS V12.07,2013-01-15 06:50:00,
2013-01-15 02:00:00,45.8,45.3,30.06,ESE,107,0.0,0.0,98,0.02,,,0.02,VWS V12.07,2013-01-15 07:00:00,
2013-01-15 02:10:00,46.0,45.5,30.06,ESE,107,0.0,0.0,98,0.03,,,0.03,VWS V12.07,2013-01-15 07:10:00,
2013-01-15 02:20:00,46.0,45.5,30.06,ESE,107,0.0,0.0,98,0.03,,,0.03,VWS V12.07,2013-01-15 07:20:00,
2013-01-15 02:30:00,46.1,45.6,30.06,ESE,107,0.0,0.0,98,0.04,,,0.04,VWS V12.07,2013-01-15 07:30:00,
2013-01-15 02:40:00,46.2,45.7,30.06,ESE,107,0.0,0.0,98,0.04,,,0.05,VWS V12.07,2013-01-15 07:40:00,
2013-01-15 02:50:00,46.5,46.0,30.07,ESE,107,0.0,0.0,98,0.04,,,0.05,VWS V12.07,2013-01-15 07:50:00,
2013-01-15 03:00:00,46.7,46.2,30.06,ESE,107,0.0,0.0,98,0.03,,,0.05,VWS V12.07,2013-01-15 08:00:00,
2013-01-15 03:10:00,46.8,46.3,30.06,ESE,107,0.0,1.0,98,0.03,,,0.05,VWS V12.07,2013-01-15 08:10:00,
2013-01-15 03:20:00,47.0,46.5,30.05,ESE,107,0.0,0.0,98,0.03,,,0.06,VWS V12.07,2013-01-15 08:20:00,
2013-01-15 03:30:00,47.4,47.1,30.04,ESE,107,0.0,1.0,99,0.04,,,0.07,VWS V12.07,2013-01-15 08:30:00,
2013-01-15 03:40:00,47.6,47.1,30.04,ESE,107,0.0,0.0,98,0.04,,,0.08,VWS V12.07,2013-01-15 08:40:00,
2013-01-15 03:50:00,48.2,47.9,30.03,ESE,107,2.0,3.0,99,0.04,,,0.09,VWS V12.07,2013-01-15 08:50:00,
2013-01-15 04:00:00,48.3,48.0,30.02,ESE,109,0.0,4.0,99,0.08,,,0.13,VWS V12.07,2013-01-15 09:00:00,
2013-01-15 04:10:00,48.2,47.9,30.02,ESE,109,2.0,3.0,99,0.11,,,0.16,VWS V12.07,2013-01-15 09:10:00,
2013-01-15 04:20:00,48.0,47.7,30.04,ESE,109,0.0,2.0,99,0.14,,,0.19,VWS V12.07,2013-01-15 09:20:00,
2013-01-15 04:30:00,47.7,47.2,30.03,SE,135,2.0,6.0,98,0.20,,,0.26,VWS V12.07,2013-01-15 09:30:00,
2013-01-15 04:40:00,47.6,47.1,30.03,ENE,76,0.0,6.0,98,0.20,,,0.27,VWS V12.07,2013-01-15 09:40:00,
2013-01-15 04:50:00,47.4,46.9,30.02,ENE,76,0.0,1.0,98,0.20,,,0.28,VWS V12.07,2013-01-15 09:50:00,
2013-01-15 05:00:00,47.3,46.8,30.03,ENE,76,0.0,3.0,98,0.23,,,0.32,VWS V12.07,2013-01-15 10:00:00,
2013-01-15 05:10:00,47.0,46.5,30.03,SE,135,0.0,6.0,98,0.21,,,0.34,VWS V12.07,2013-01-15 10:10:00,
2013-01-15 05:20:00,46.7,46.2,30.01,SE,135,0.0,8.0,98,0.21,,,0.37,VWS V12.07,2013-01-15 10:20:00,
2013-01-15 05:30:00,46.4,45.9,30.01,East,89,0.0,6.0,98,0.21,,,0.40,VWS V12.07,2013-01-15 10:30:00,
2013-01-15 05:40:00,46.1,45.6,30.01,ENE,64,0.0,3.0,98,0.16,,,0.42,VWS V12.07,2013-01-15 10:40:00,
2013-01-15 05:50:00,46.0,45.5,30.01,ENE,64,0.0,1.0,98,0.15,,,0.42,VWS V12.07,2013-01-15 10:50:00,
2013-01-15 06:00:00,46.0,45.5,30.01,ENE,64,2.0,2.0,98,0.16,,,0.44,VWS V12.07,2013-01-15 11:00:00,
2013-01-15 06:10:00,45.8,45.3,30.01,SE,126,0.0,5.0,98,0.16,,,0.48,VWS V12.07,2013-01-15 11:10:00,
2013-01-15 06:20:00,45.7,45.2,30.02,SE,126,0.0,0.0,98,0.17,,,0.51,VWS V12.07,2013-01-15 11:20:00,
2013-01-15 06:30:00,45.7,45.2,30.03,SE,126,0.0,0.0,98,0.17,,,0.54,VWS V12.07,2013-01-15 11:30:00,
2013-01-15 06:40:00,45.8,45.3,30.03,SE,126,0.0,1.0,98,0.16,,,0.56,VWS V12.07,2013-01-15 11:40:00,
2013-01-15 06:50:00,45.5,45.0,30.03,ESE,102,0.0,4.0,98,0.16,,,0.58,VWS V12.07,2013-01-15 11:50:00,
2013-01-15 07:00:00,45.2,44.7,30.04,ENE,74,1.0,4.0,98,0.19,,,0.61,VWS V12.07,2013-01-15 12:00:00,
2013-01-15 07:10:00,45.1,44.6,30.04,ENE,74,0.0,2.0,98,0.19,,,0.63,VWS V12.07,2013-01-15 12:10:00,
2013-01-15 07:20:00,45.1,44.6,30.06,ENE,74,0.0,0.0,98,0.17,,,0.65,VWS V12.07,2013-01-15 12:20:00,
2013-01-15 07:30:00,45.2,44.7,30.05,ENE,74,0.0,3.0,98,0.16,,,0.67,VWS V12.07,2013-01-15 12:30:00,
2013-01-15 07:40:00,45.1,44.6,30.05,ENE,74,0.0,2.0,98,0.14,,,0.68,VWS V12.07,2013-01-15 12:40:00,
2013-01-15 07:51:00,45.1,44.6,30.05,ENE,74,0.0,2.0,98,0.14,,,0.70,VWS V12.07,2013-01-15 12:51:00,
2013-01-15 07:59:00,45.1,44.6,30.06,ENE,74,0.0,0.0,98,0.14,,,0.72,VWS V12.07,2013-01-15 12:59:00,
2013-01-15 08:10:00,45.1,44.6,30.06,ENE,74,0.0,2.0,98,0.12,,,0.73,VWS V12.07,2013-01-15 13:10:00,
2013-01-15 08:29:00,45.1,44.6,30.10,ENE,74,1.0,1.0,98,0.11,,,0.74,VWS V12.07,2013-01-15 13:29:00,
2013-01-15 08:40:00,44.8,44.0,30.11,ENE,74,0.0,2.0,97,0.11,,,0.78,VWS V12.07,2013-01-15 13:40:00,
2013-01-15 08:59:00,44.8,44.3,30.12,ENE,74,0.0,1.0,98,0.12,,,0.80,VWS V12.07,2013-01-15 13:59:00,
2013-01-15 09:10:00,44.9,44.1,30.11,ENE,74,0.0,1.0,97,0.11,,,0.83,VWS V12.07,2013-01-15 14:10:00,
2013-01-15 09:29:00,44.9,44.1,30.12,ENE,74,0.0,1.0,97,0.10,,,0.83,VWS V12.07,2013-01-15 14:29:00,
2013-01-15 09:40:00,44.8,44.0,30.13,ENE,74,0.0,4.0,97,0.09,,,0.85,VWS V12.07,2013-01-15 14:40:00,
2013-01-15 09:59:00,44.6,43.8,30.12,ENE,74,0.0,3.0,97,0.07,,,0.85,VWS V12.07,2013-01-15 14:59:00,
2013-01-15 10:10:00,44.8,44.0,30.12,ENE,74,0.0,3.0,97,0.04,,,0.86,VWS V12.07,2013-01-15 15:10:00,
2013-01-15 10:29:00,44.8,44.0,30.13,ENE,74,0.0,0.0,97,0.03,,,0.86,VWS V12.07,2013-01-15 15:29:00,
2013-01-15 10:40:00,44.9,44.1,30.13,ENE,74,0.0,1.0,97,0.06,,,0.90,VWS V12.07,2013-01-15 15:40:00,
2013-01-15 10:59:00,45.2,44.4,30.11,ENE,74,2.0,4.0,97,0.05,,,0.90,VWS V12.07,2013-01-15 15:59:00,
2013-01-15 11:10:00,44.9,44.1,30.11,ESE,115,0.0,4.0,97,0.06,,,0.92,VWS V12.07,2013-01-15 16:10:00,
2013-01-15 11:29:00,44.9,44.1,30.11,East,100,3.0,3.0,97,0.08,,,0.94,VWS V12.07,2013-01-15 16:29:00,
2013-01-15 11:40:00,45.2,44.4,30.10,East,98,0.0,3.0,97,0.07,,,0.95,VWS V12.07,2013-01-15 16:40:00,
2013-01-15 11:59:00,45.2,44.4,30.09,East,98,0.0,3.0,97,0.05,,,0.95,VWS V12.07,2013-01-15 16:59:00,
2013-01-15 12:10:00,45.4,44.6,30.09,ENE,77,0.0,4.0,97,0.06,,,0.96,VWS V12.07,2013-01-15 17:10:00,
2013-01-15 12:29:00,45.4,44.6,30.07,ENE,78,0.0,5.0,97,0.05,,,0.97,VWS V12.07,2013-01-15 17:29:00,
2013-01-15 12:40:00,45.1,44.0,30.06,ENE,77,3.0,6.0,96,0.04,,,0.98,VWS V12.07,2013-01-15 17:40:00,
2013-01-15 12:59:00,44.3,43.2,30.06,SE,126,4.0,8.0,96,0.03,,,0.98,VWS V12.07,2013-01-15 17:59:00,
2013-01-15 13:10:00,44.2,43.4,30.06,East,99,2.0,6.0,97,0.04,,,1.00,VWS V12.07,2013-01-15 18:10:00,
2013-01-15 13:29:00,44.1,43.3,30.05,East,94,3.0,7.0,97,0.04,,,1.00,VWS V12.07,2013-01-15 18:29:00,
2013-01-15 13:40:00,43.8,43.0,30.05,ENE,76,0.0,6.0,97,0.04,,,1.01,VWS V12.07,2013-01-15 18:40:00,
2013-01-15 13:59:00,43.6,42.8,30.04,ENE,63,3.0,4.0,97,0.04,,,1.02,VWS V12.07,2013-01-15 18:59:00,
2013-01-15 14:10:00,43.2,42.4,30.04,NE,37,3.0,4.0,97,0.05,,,1.04,VWS V12.07,2013-01-15 19:10:00,
2013-01-15 14:29:00,42.9,42.1,30.04,NE,40,1.0,4.0,97,0.04,,,1.04,VWS V12.07,2013-01-15 19:29:00,
2013-01-15 14:40:00,42.5,41.7,30.03,NE,51,3.0,5.0,97,0.03,,,1.04,VWS V12.07,2013-01-15 19:40:00,
2013-01-15 14:59:00,42.3,41.5,30.03,ENE,74,0.0,5.0,97,0.03,,,1.04,VWS V12.07,2013-01-15 19:59:00,
2013-01-15 15:10:00,42.3,41.5,30.02,ENE,57,4.0,4.0,97,0.03,,,1.06,VWS V12.07,2013-01-15 20:10:00,
2013-01-15 15:29:00,41.9,41.1,30.02,East,80,2.0,5.0,97,0.02,,,1.06,VWS V12.07,2013-01-15 20:29:00,
2013-01-15 15:40:00,42.1,41.3,30.04,ENE,76,0.0,1.0,97,0.06,,,1.10,VWS V12.07,2013-01-15 20:40:00,
2013-01-15 15:59:00,41.8,41.0,30.03,ENE,76,0.0,3.0,97,0.07,,,1.11,VWS V12.07,2013-01-15 20:59:00,
2013-01-15 16:10:00,41.5,40.7,30.03,ENE,77,1.0,4.0,97,0.10,,,1.15,VWS V12.07,2013-01-15 21:10:00,
2013-01-15 16:29:00,41.3,40.5,30.04,ENE,77,0.0,3.0,97,0.12,,,1.18,VWS V12.07,2013-01-15 21:29:00,
2013-01-15 16:40:00,41.2,40.4,30.05,ENE,78,1.0,4.0,97,0.14,,,1.22,VWS V12.07,2013-01-15 21:40:00,
2013-01-15 16:59:00,41.2,40.4,30.05,ENE,78,2.0,3.0,97,0.13,,,1.23,VWS V12.07,2013-01-15 21:59:00,
2013-01-15 17:10:00,40.9,40.1,30.04,ENE,78,0.0,4.0,97,0.15,,,1.29,VWS V12.07,2013-01-15 22:10:00,
2013-01-15 17:29:00,41.1,40.3,30.04,ENE,78,0.0,0.0,97,0.16,,,1.31,VWS V12.07,2013-01-15 22:29:00,
2013-01-15 17:40:00,40.9,40.1,30.04,ENE,78,0.0,0.0,97,0.13,,,1.33,VWS V12.07,2013-01-15 22:40:00,
2013-01-15 17:59:00,41.1,40.3,30.04,ENE,78,0.0,0.0,97,0.13,,,1.35,VWS V12.07,2013-01-15 22:59:00,
2013-01-15 18:10:00,40.9,40.1,30.05,ENE,78,0.0,0.0,97,0.16,,,1.42,VWS V12.07,2013-01-15 23:10:00,
2013-01-15 18:29:00,41.1,40.3,30.07,ENE,78,0.0,1.0,97,0.17,,,1.46,VWS V12.07,2013-01-15 23:29:00,
2013-01-15 18:40:00,40.9,40.1,30.06,ENE,78,2.0,3.0,97,0.18,,,1.49,VWS V12.07,2013-01-15 23:40:00,
2013-01-15 18:59:00,40.9,40.1,30.05,ENE,78,0.0,4.0,97,0.17,,,1.50,VWS V12.07,2013-01-15 23:59:00,
2013-01-15 19:10:00,40.9,40.4,30.05,ENE,78,0.0,2.0,98,0.13,,,1.52,VWS V12.07,2013-01-16 00:10:00,
2013-01-15 19:29:00,40.9,40.1,30.06,ENE,78,0.0,1.0,97,0.14,,,1.56,VWS V12.07,2013-01-16 00:29:00,
2013-01-15 19:40:00,40.8,40.3,30.05,ENE,78,0.0,0.0,98,0.16,,,1.64,VWS V12.07,2013-01-16 00:40:00,
2013-01-15 19:59:00,40.9,40.4,30.05,ENE,78,0.0,0.0,98,0.22,,,1.71,VWS V12.07,2013-01-16 00:59:00,
2013-01-15 20:10:00,41.2,40.7,30.04,ENE,78,0.0,0.0,98,0.25,,,1.75,VWS V12.07,2013-01-16 01:10:00,
2013-01-15 20:29:00,41.2,40.7,30.03,ENE,78,0.0,0.0,98,0.24,,,1.76,VWS V12.07,2013-01-16 01:29:00,
2013-01-15 20:40:00,41.3,40.8,30.02,ENE,78,0.0,0.0,98,0.19,,,1.79,VWS V12.07,2013-01-16 01:40:00,
2013-01-15 20:59:00,41.3,40.8,30.01,ENE,78,0.0,0.0,98,0.16,,,1.80,VWS V12.07,2013-01-16 01:59:00,
2013-01-15 21:10:00,41.6,41.1,30.01,ENE,78,0.0,0.0,98,0.12,,,1.85,VWS V12.07,2013-01-16 02:10:00,
2013-01-15 21:29:00,41.8,41.3,30.01,ENE,78,0.0,0.0,98,0.11,,,1.86,VWS V12.07,2013-01-16 02:29:00,
2013-01-15 21:40:00,41.8,41.3,30.01,ENE,78,0.0,0.0,98,0.12,,,1.89,VWS V12.07,2013-01-16 02:40:00,
2013-01-15 21:59:00,41.9,41.4,30.00,ENE,78,0.0,0.0,98,0.11,,,1.90,VWS V12.07,2013-01-16 02:59:00,
2013-01-15 22:10:00,42.1,41.6,30.00,ENE,78,0.0,0.0,98,0.08,,,1.91,VWS V12.07,2013-01-16 03:10:00,
2013-01-15 22:29:00,42.1,41.6,30.00,ENE,78,0.0,0.0,98,0.07,,,1.92,VWS V12.07,2013-01-16 03:29:00,
2013-01-15 22:40:00,42.2,41.7,30.00,ENE,78,0.0,0.0,98,0.04,,,1.92,VWS V12.07,2013-01-16 03:40:00,
2013-01-15 22:59:00,42.3,42.0,30.00,ENE,78,0.0,1.0,99,0.03,,,1.92,VWS V12.07,2013-01-16 03:59:00,
2013-01-15 23:10:00,42.6,42.3,29.99,ENE,78,0.0,0.0,99,0.02,,,1.92,VWS V12.07,2013-01-16 04:10:00,
2013-01-15 23:29:00,42.6,42.3,29.99,ENE,78,0.0,2.0,99,0.01,,,1.92,VWS V12.07,2013-01-16 04:29:00,
2013-01-15 23:40:00,43.1,42.8,29.98,ENE,78,0.0,3.0,99,0.01,,,1.93,VWS V12.07,2013-01-16 04:40:00,
2013-01-15 23:59:00,43.3,43.0,29.98,ENE,78,0.0,0.0,99,0.01,,,1.93,VWS V12.07,2013-01-16 04:59:00,